Time,TemperatureF,DewpointF,PressureIn,WindDirection,WindDirectionDegrees,WindSpeedMPH,WindSpeedGustMPH,Humidity,HourlyPrecipIn,Conditions,Clouds,dailyrainin,SoftwareType,DateUTC
2013-06-16 00:01:00,65.3,62.6,29.95,WSW,244,9.0,14.0,87,0.00,,,0.00,meteohub,2013-06-16 04:01:00,
2013-06-16 00:02:00,65.1,62.6,29.95,SW,224,6.0,14.0,87,0.00,,,0.00,meteohub,2013-06-16 04:02:00,
2013-06-16 00:07:00,65.1,62.6,29.95,SW,228,7.0,14.0,87,0.00,,,0.00,meteohub,2013-06-16 04:07:00,
2013-06-16 00:12:00,65.1,62.4,29.95,SW,229,6.0,12.0,87,0.00,,,0.00,meteohub,2013-06-16 04:12:00,
2013-06-16 00:17:00,64.9,62.4,29.96,WSW,240,5.0,11.0,87,0.00,,,0.00,meteohub,2013-06-16 04:17:00,
2013-06-16 00:22:00,64.9,62.4,29.96,SW,229,6.0,11.0,87,0.00,,,0.00,meteohub,2013-06-16 04:22:00,
2013-06-16 00:27:00,64.9,62.4,29.96,SW,225,6.0,9.0,86,0.00,,,0.00,meteohub,2013-06-16 04:27:00,
2013-06-16 00:32:00,64.8,62.4,29.96,SW,229,6.0,10.0,86,0.00,,,0.00,meteohub,2013-06-16 04:32:00,
2013-06-16 00:37:00,64.6,62.4,29.95,SW,231,5.0,10.0,86,0.00,,,0.00,meteohub,2013-06-16 04:37:00,
2013-06-16 00:42:00,64.6,62.4,29.96,WSW,238,4.0,9.0,87,0.00,,,0.00,meteohub,2013-06-16 04:42:00,
2013-06-16 00:47:00,64.4,62.4,29.95,SW,236,5.0,8.0,87,0.00,,,0.00,meteohub,2013-06-16 04:47:00,
2013-06-16 00:52:00,64.4,62.4,29.95,SW,235,4.0,7.0,87,0.00,,,0.00,meteohub,2013-06-16 04:52:00,
2013-06-16 00:57:00,64.4,62.4,29.95,WSW,240,3.0,7.0,87,0.00,,,0.00,meteohub,2013-06-16 04:57:00,
2013-06-16 01:02:00,64.6,62.2,29.95,WSW,239,3.0,7.0,86,0.00,,,0.00,meteohub,2013-06-16 05:02:00,
2013-06-16 01:08:00,64.6,62.2,29.95,WSW,239,0.0,6.0,86,0.00,,,0.00,meteohub,2013-06-16 05:08:00,
2013-06-16 01:13:00,64.0,62.2,29.95,WSW,239,0.0,5.0,86,0.00,,,0.00,meteohub,2013-06-16 05:13:00,
2013-06-16 01:18:00,63.1,62.4,29.95,WNW,290,5.0,6.0,87,0.00,,,0.00,meteohub,2013-06-16 05:18:00,
2013-06-16 01:23:00,62.8,62.4,29.95,WNW,300,3.0,6.0,88,0.00,,,0.00,meteohub,2013-06-16 05:23:00,
2013-06-16 01:28:00,62.4,62.4,29.96,WNW,286,3.0,7.0,89,0.00,,,0.00,meteohub,2013-06-16 05:28:00,
2013-06-16 01:33:00,62.4,62.4,29.96,WNW,286,5.0,7.0,89,0.00,,,0.00,meteohub,2013-06-16 05:33:00,
2013-06-16 01:38:00,62.4,62.2,29.96,West,281,4.0,7.0,89,0.00,,,0.00,meteohub,2013-06-16 05:38:00,
2013-06-16 01:43:00,62.4,62.2,29.96,West,281,3.0,7.0,89,0.00,,,0.00,meteohub,2013-06-16 05:43:00,
2013-06-16 01:48:00,62.8,62.2,29.96,West,267,8.0,8.0,88,0.00,,,0.00,meteohub,2013-06-16 05:48:00,
2013-06-16 01:53:00,63.0,62.2,29.96,West,265,5.0,8.0,87,0.00,,,0.00,meteohub,2013-06-16 05:53:00,
2013-06-16 01:58:00,63.1,62.2,29.96,West,265,6.0,9.0,87,0.00,,,0.00,meteohub,2013-06-16 05:58:00,
2013-06-16 02:03:00,63.1,62.2,29.96,West,261,7.0,9.0,86,0.00,,,0.00,meteohub,2013-06-16 06:03:00,
2013-06-16 02:08:00,63.1,62.2,29.96,West,275,5.0,8.0,86,0.00,,,0.00,meteohub,2013-06-16 06:08:00,
2013-06-16 02:13:00,63.1,62.1,29.96,West,270,4.0,8.0,86,0.00,,,0.00,meteohub,2013-06-16 06:13:00,
2013-06-16 02:18:00,63.1,62.1,29.96,West,269,6.0,7.0,87,0.00,,,0.00,meteohub,2013-06-16 06:18:00,
2013-06-16 02:23:00,63.1,62.1,29.96,West,271,5.0,8.0,87,0.00,,,0.00,meteohub,2013-06-16 06:23:00,
2013-06-16 02:28:00,63.1,62.1,29.96,West,269,5.0,8.0,87,0.00,,,0.00,meteohub,2013-06-16 06:28:00,
2013-06-16 02:33:00,63.0,62.1,29.96,West,269,5.0,8.0,87,0.00,,,0.00,meteohub,2013-06-16 06:33:00,
2013-06-16 02:38:00,63.0,62.1,29.96,West,269,4.0,8.0,88,0.00,,,0.00,meteohub,2013-06-16 06:38:00,
2013-06-16 02:43:00,63.1,61.7,29.96,West,279,6.0,7.0,88,0.00,,,0.00,meteohub,2013-06-16 06:43:00,
2013-06-16 02:48:00,63.1,61.7,29.96,West,278,4.0,8.0,88,0.00,,,0.00,meteohub,2013-06-16 06:48:00,
2013-06-16 02:53:00,63.1,61.7,29.96,West,277,3.0,8.0,88,0.00,,,0.00,meteohub,2013-06-16 06:53:00,
2013-06-16 02:58:00,63.0,61.7,29.96,West,277,5.0,8.0,88,0.00,,,0.00,meteohub,2013-06-16 06:58:00,
2013-06-16 03:03:00,63.0,61.7,29.97,West,273,3.0,6.0,88,0.00,,,0.00,meteohub,2013-06-16 07:03:00,
2013-06-16 03:08:00,62.8,61.7,29.97,West,273,4.0,7.0,88,0.00,,,0.00,meteohub,2013-06-16 07:08:00,
2013-06-16 03:13:00,62.6,61.7,29.97,West,273,5.0,7.0,89,0.00,,,0.00,meteohub,2013-06-16 07:13:00,
2013-06-16 03:18:00,62.8,61.7,29.97,West,279,3.0,7.0,89,0.00,,,0.00,meteohub,2013-06-16 07:18:00,
2013-06-16 03:23:00,62.8,61.5,29.97,WNW,283,6.0,9.0,89,0.00,,,0.00,meteohub,2013-06-16 07:23:00,
2013-06-16 03:28:00,63.0,61.5,29.96,WNW,290,6.0,9.0,89,0.00,,,0.00,meteohub,2013-06-16 07:28:00,
2013-06-16 03:33:00,63.0,61.5,29.96,WNW,288,3.0,9.0,89,0.00,,,0.00,meteohub,2013-06-16 07:33:00,
2013-06-16 03:38:00,63.0,61.5,29.96,WNW,288,8.0,8.0,89,0.00,,,0.00,meteohub,2013-06-16 07:38:00,
2013-06-16 03:43:00,63.0,61.5,29.96,WNW,290,4.0,8.0,89,0.00,,,0.00,meteohub,2013-06-16 07:43:00,
2013-06-16 03:48:00,62.8,61.5,29.96,WNW,294,5.0,8.0,90,0.00,,,0.00,meteohub,2013-06-16 07:48:00,
2013-06-16 03:53:00,62.4,61.5,29.96,WNW,294,7.0,8.0,90,0.00,,,0.00,meteohub,2013-06-16 07:53:00,
2013-06-16 03:58:00,62.4,61.5,29.96,WNW,294,3.0,8.0,91,0.00,,,0.00,meteohub,2013-06-16 07:58:00,
2013-06-16 04:03:00,62.2,61.5,29.96,WNW,294,5.0,8.0,91,0.00,,,0.00,meteohub,2013-06-16 08:03:00,
2013-06-16 04:08:00,62.2,61.5,29.96,WNW,292,4.0,8.0,92,0.00,,,0.00,meteohub,2013-06-16 08:08:00,
2013-06-16 04:13:00,62.2,61.5,29.96,WNW,289,3.0,8.0,92,0.00,,,0.00,meteohub,2013-06-16 08:13:00,
2013-06-16 04:18:00,62.1,61.5,29.96,WNW,289,3.0,7.0,92,0.00,,,0.00,meteohub,2013-06-16 08:18:00,
2013-06-16 04:23:00,61.9,61.5,29.96,WSW,240,5.0,7.0,91,0.00,,,0.00,meteohub,2013-06-16 08:23:00,
2013-06-16 04:28:00,61.9,61.5,29.96,WSW,240,3.0,6.0,91,0.00,,,0.00,meteohub,2013-06-16 08:28:00,
2013-06-16 04:33:00,61.5,62.1,29.96,WSW,240,0.0,6.0,91,0.00,,,0.00,meteohub,2013-06-16 08:33:00,
2013-06-16 04:38:00,61.3,62.1,29.96,WSW,240,0.0,6.0,91,0.00,,,0.00,meteohub,2013-06-16 08:38:00,
2013-06-16 04:43:00,61.2,62.1,29.96,WSW,240,0.0,3.0,91,0.00,,,0.00,meteohub,2013-06-16 08:43:00,
2013-06-16 04:48:00,61.0,61.9,29.96,WSW,240,0.0,0.0,92,0.00,,,0.00,meteohub,2013-06-16 08:48:00,
2013-06-16 04:53:00,60.8,61.9,29.96,WSW,239,1.0,3.0,92,0.00,,,0.00,meteohub,2013-06-16 08:53:00,
2013-06-16 04:58:00,60.6,61.9,29.96,WSW,239,0.0,4.0,92,0.00,,,0.00,meteohub,2013-06-16 08:58:00,
2013-06-16 05:03:00,60.4,61.9,29.96,WSW,241,0.0,4.0,93,0.00,,,0.00,meteohub,2013-06-16 09:03:00,
2013-06-16 05:08:00,60.4,61.9,29.96,WSW,240,0.0,4.0,93,0.00,,,0.00,meteohub,2013-06-16 09:08:00,
2013-06-16 05:13:00,60.4,61.9,29.96,WSW,238,0.0,2.0,93,0.00,,,0.00,meteohub,2013-06-16 09:13:00,
2013-06-16 05:18:00,60.4,61.9,29.96,WSW,239,0.0,0.0,93,0.00,,,0.00,meteohub,2013-06-16 09:18:00,
2013-06-16 05:23:00,60.3,61.9,29.96,WSW,240,0.0,0.0,93,0.00,,,0.00,meteohub,2013-06-16 09:23:00,
2013-06-16 05:28:00,60.3,61.9,29.96,WSW,239,3.0,0.0,93,0.00,,,0.00,meteohub,2013-06-16 09:28:00,
2013-06-16 05:33:00,60.3,61.9,29.95,WSW,240,2.0,4.0,93,0.00,,,0.00,meteohub,2013-06-16 09:33:00,
2013-06-16 05:38:00,60.6,61.9,29.96,WSW,240,1.0,4.0,93,0.00,,,0.00,meteohub,2013-06-16 09:38:00,
2013-06-16 05:43:00,60.6,61.9,29.96,WSW,240,0.0,4.0,93,0.00,,,0.00,meteohub,2013-06-16 09:43:00,
2013-06-16 05:48:00,61.2,61.9,29.96,WSW,240,2.0,3.0,93,0.00,,,0.00,meteohub,2013-06-16 09:48:00,
2013-06-16 05:53:00,61.7,61.9,29.96,WSW,239,0.0,3.0,92,0.00,,,0.00,meteohub,2013-06-16 09:53:00,
2013-06-16 05:58:00,61.9,62.1,29.96,WSW,240,4.0,4.0,91,0.00,,,0.00,meteohub,2013-06-16 09:58:00,
2013-06-16 06:03:00,61.5,62.1,29.96,WSW,240,0.0,3.0,91,0.00,,,0.00,meteohub,2013-06-16 10:03:00,
2013-06-16 06:08:00,61.7,61.5,29.96,WSW,240,0.0,4.0,91,0.00,,,0.00,meteohub,2013-06-16 10:08:00,
2013-06-16 06:13:00,61.9,61.5,29.96,NW,304,5.0,5.0,90,0.00,,,0.00,meteohub,2013-06-16 10:13:00,
2013-06-16 06:18:00,61.5,61.5,29.96,NW,315,3.0,6.0,91,0.00,,,0.00,meteohub,2013-06-16 10:18:00,
2013-06-16 06:23:00,60.8,61.7,29.96,NW,321,4.0,7.0,91,0.00,,,0.00,meteohub,2013-06-16 10:23:00,
2013-06-16 06:28:00,60.4,61.7,29.97,NW,321,1.0,7.0,93,0.00,,,0.00,meteohub,2013-06-16 10:28:00,
2013-06-16 06:33:00,60.4,61.7,29.96,NW,321,0.0,7.0,93,0.00,,,0.00,meteohub,2013-06-16 10:33:00,
2013-06-16 06:38:00,60.3,62.1,29.96,NW,321,0.0,7.0,93,0.00,,,0.00,meteohub,2013-06-16 10:38:00,
2013-06-16 06:43:00,60.4,60.6,29.96,NW,321,0.0,4.0,93,0.00,,,0.00,meteohub,2013-06-16 10:43:00,
2013-06-16 06:48:00,60.6,58.3,29.96,NW,321,0.0,0.0,93,0.00,,,0.00,meteohub,2013-06-16 10:48:00,
2013-06-16 06:53:00,61.2,59.2,29.96,NW,321,0.0,0.0,93,0.00,,,0.00,meteohub,2013-06-16 10:53:00,
2013-06-16 06:58:00,61.7,59.0,29.96,NW,321,0.0,0.0,92,0.00,,,0.00,meteohub,2013-06-16 10:58:00,
2013-06-16 07:03:00,62.2,58.1,29.97,NW,321,0.0,3.0,92,0.00,,,0.00,meteohub,2013-06-16 11:03:00,
2013-06-16 07:08:00,62.4,57.2,29.96,NW,320,0.0,3.0,91,0.00,,,0.00,meteohub,2013-06-16 11:08:00,
2013-06-16 07:13:00,62.4,56.5,29.97,NW,321,0.0,3.0,90,0.00,,,0.00,meteohub,2013-06-16 11:13:00,
2013-06-16 07:18:00,62.4,56.1,29.97,NW,321,0.0,0.0,90,0.00,,,0.00,meteohub,2013-06-16 11:18:00,
2013-06-16 07:23:00,63.0,56.5,29.97,NW,321,0.0,0.0,89,0.00,,,0.00,meteohub,2013-06-16 11:23:00,
2013-06-16 07:28:00,63.0,56.8,29.97,NW,321,0.0,0.0,88,0.00,,,0.00,meteohub,2013-06-16 11:28:00,
2013-06-16 07:33:00,63.0,56.7,29.97,NW,321,0.0,0.0,88,0.00,,,0.00,meteohub,2013-06-16 11:33:00,
2013-06-16 07:38:00,63.0,56.3,29.97,NW,321,0.0,0.0,88,0.00,,,0.00,meteohub,2013-06-16 11:38:00,
2013-06-16 07:43:00,63.1,55.6,29.97,NW,321,0.0,0.0,89,0.00,,,0.00,meteohub,2013-06-16 11:43:00,
2013-06-16 07:48:00,63.1,53.6,29.97,NW,321,0.0,0.0,88,0.00,,,0.00,meteohub,2013-06-16 11:48:00,
2013-06-16 07:53:00,63.1,51.8,29.97,NW,321,0.0,0.0,88,0.00,,,0.00,meteohub,2013-06-16 11:53:00,
2013-06-16 07:58:00,63.7,50.9,29.97,NW,321,0.0,0.0,89,0.00,,,0.00,meteohub,2013-06-16 11:58:00,
2013-06-16 08:03:00,64.2,49.8,29.97,NW,321,3.0,0.0,88,0.00,,,0.00,meteohub,2013-06-16 12:03:00,
2013-06-16 08:08:00,64.4,49.5,29.96,NW,321,1.0,4.0,88,0.00,,,0.00,meteohub,2013-06-16 12:08:00,
2013-06-16 08:13:00,64.8,48.6,29.97,WNW,292,2.0,4.0,87,0.00,,,0.00,meteohub,2013-06-16 12:13:00,
2013-06-16 08:18:00,65.1,48.4,29.97,WNW,292,1.0,5.0,85,0.00,,,0.00,meteohub,2013-06-16 12:18:00,
2013-06-16 08:23:00,64.8,48.0,29.97,WNW,292,0.0,5.0,86,0.00,,,0.00,meteohub,2013-06-16 12:23:00,
2013-06-16 08:28:00,64.9,47.8,29.96,WNW,292,1.0,5.0,87,0.00,,,0.00,meteohub,2013-06-16 12:28:00,
2013-06-16 08:33:00,65.5,47.5,29.96,SW,230,6.0,6.0,84,0.00,,,0.00,meteohub,2013-06-16 12:33:00,
2013-06-16 08:38:00,66.0,47.3,29.96,SW,229,3.0,7.0,84,0.00,,,0.00,meteohub,2013-06-16 12:38:00,
2013-06-16 08:43:00,66.7,47.1,29.97,SW,234,4.0,8.0,82,0.00,,,0.00,meteohub,2013-06-16 12:43:00,
2013-06-16 08:48:00,66.9,50.9,29.96,WSW,238,4.0,8.0,80,0.00,,,0.00,meteohub,2013-06-16 12:48:00,
2013-06-16 08:53:00,67.3,54.0,29.96,SW,230,5.0,9.0,79,0.00,,,0.00,meteohub,2013-06-16 12:53:00,
2013-06-16 08:58:00,67.5,55.6,29.96,SW,228,7.0,9.0,79,0.00,,,0.00,meteohub,2013-06-16 12:58:00,
2013-06-16 09:03:00,67.6,56.7,29.96,SW,234,4.0,9.0,80,0.00,,,0.00,meteohub,2013-06-16 13:03:00,
2013-06-16 09:08:00,67.8,57.4,29.96,SW,234,5.0,9.0,80,0.00,,,0.00,meteohub,2013-06-16 13:08:00,
2013-06-16 09:13:00,67.8,58.1,29.96,SW,230,5.0,9.0,79,0.00,,,0.00,meteohub,2013-06-16 13:13:00,
2013-06-16 09:18:00,68.0,58.3,29.96,SW,228,6.0,8.0,80,0.00,,,0.00,meteohub,2013-06-16 13:18:00,
2013-06-16 09:23:00,68.2,58.5,29.96,SW,216,7.0,8.0,79,0.00,,,0.00,meteohub,2013-06-16 13:23:00,
2013-06-16 09:28:00,67.8,59.0,29.96,SW,216,6.0,8.0,79,0.00,,,0.00,meteohub,2013-06-16 13:28:00,
2013-06-16 09:33:00,66.6,59.2,29.95,SSW,205,6.0,8.0,82,0.00,,,0.00,meteohub,2013-06-16 13:33:00,
2013-06-16 09:38:00,65.5,59.4,29.95,SSW,204,5.0,8.0,86,0.00,,,0.00,meteohub,2013-06-16 13:38:00,
2013-06-16 09:43:00,65.5,60.1,29.95,SSW,205,4.0,8.0,88,0.00,,,0.00,meteohub,2013-06-16 13:43:00,
2013-06-16 09:48:00,65.5,60.3,29.94,SSW,204,3.0,6.0,88,0.00,,,0.00,meteohub,2013-06-16 13:48:00,
2013-06-16 09:53:00,65.5,61.0,29.94,SSW,204,3.0,6.0,88,0.00,,,0.00,meteohub,2013-06-16 13:53:00,
2013-06-16 09:58:00,65.7,61.0,29.94,SSW,203,5.0,6.0,86,0.00,,,0.00,meteohub,2013-06-16 13:58:00,
2013-06-16 10:03:00,65.8,61.0,29.94,SSW,200,6.0,7.0,84,0.00,,,0.00,meteohub,2013-06-16 14:03:00,
2013-06-16 10:08:00,66.4,60.3,29.94,SSW,200,5.0,8.0,84,0.00,,,0.00,meteohub,2013-06-16 14:08:00,
2013-06-16 10:13:00,66.7,58.8,29.94,SSW,200,4.0,8.0,83,0.00,,,0.00,meteohub,2013-06-16 14:13:00,
2013-06-16 10:19:00,66.9,57.2,29.94,SSW,200,5.0,8.0,82,0.00,,,0.00,meteohub,2013-06-16 14:19:00,
2013-06-16 10:24:00,67.5,55.4,29.94,SSW,200,5.0,7.0,81,0.00,,,0.00,meteohub,2013-06-16 14:24:00,
2013-06-16 10:29:00,67.8,54.0,29.94,SSW,200,3.0,6.0,79,0.00,,,0.00,meteohub,2013-06-16 14:29:00,
2013-06-16 10:34:00,68.4,53.1,29.94,SSW,200,3.0,6.0,77,0.00,,,0.00,meteohub,2013-06-16 14:34:00,
2013-06-16 10:39:00,68.7,52.3,29.94,SSW,200,3.0,6.0,75,0.00,,,0.00,meteohub,2013-06-16 14:39:00,
2013-06-16 10:44:00,69.1,51.4,29.94,SSW,200,1.0,7.0,73,0.00,,,0.00,meteohub,2013-06-16 14:44:00,
2013-06-16 10:49:00,69.4,50.5,29.94,SSW,201,1.0,7.0,72,0.00,,,0.00,meteohub,2013-06-16 14:49:00,
2013-06-16 10:54:00,70.0,50.4,29.94,SW,219,2.0,7.0,71,0.00,,,0.00,meteohub,2013-06-16 14:54:00,
2013-06-16 10:59:00,70.3,49.5,29.94,SW,236,4.0,6.0,69,0.00,,,0.00,meteohub,2013-06-16 14:59:00,
2013-06-16 11:04:00,70.9,49.3,29.93,SW,222,3.0,7.0,70,0.00,,,0.00,meteohub,2013-06-16 15:04:00,
2013-06-16 11:09:00,70.2,49.1,29.93,SSW,198,2.0,7.0,71,0.00,,,0.00,meteohub,2013-06-16 15:09:00,
2013-06-16 11:14:00,69.6,48.9,29.93,SSW,198,2.0,7.0,73,0.00,,,0.00,meteohub,2013-06-16 15:14:00,
2013-06-16 11:19:00,69.4,48.0,29.93,SSW,198,2.0,6.0,74,0.00,,,0.00,meteohub,2013-06-16 15:19:00,
2013-06-16 11:24:00,69.3,47.8,29.93,SSW,198,4.0,6.0,75,0.00,,,0.00,meteohub,2013-06-16 15:24:00,
2013-06-16 11:29:00,69.3,49.6,29.93,SSW,210,5.0,7.0,74,0.00,,,0.00,meteohub,2013-06-16 15:29:00,
2013-06-16 11:34:00,68.9,51.8,29.92,SSW,202,3.0,8.0,75,0.00,,,0.00,meteohub,2013-06-16 15:34:00,
2013-06-16 11:39:00,68.7,53.4,29.92,SSW,202,3.0,8.0,76,0.00,,,0.00,meteohub,2013-06-16 15:39:00,
2013-06-16 11:44:00,68.7,54.3,29.92,SSW,202,4.0,8.0,76,0.00,,,0.00,meteohub,2013-06-16 15:44:00,
2013-06-16 11:49:00,69.1,54.3,29.92,SSW,211,10.0,10.0,67,0.00,,,0.00,meteohub,2013-06-16 15:49:00,
2013-06-16 11:54:00,70.3,53.4,29.91,SSW,201,6.0,10.0,64,0.00,,,0.00,meteohub,2013-06-16 15:54:00,
2013-06-16 11:59:00,70.0,52.3,29.91,SSW,201,5.0,12.0,67,0.00,,,0.00,meteohub,2013-06-16 15:59:00,
2013-06-16 12:04:00,69.1,51.1,29.91,SSW,192,3.0,12.0,69,0.00,,,0.00,meteohub,2013-06-16 16:04:00,
2013-06-16 12:09:00,69.1,49.6,29.91,SSW,192,2.0,12.0,72,0.00,,,0.00,meteohub,2013-06-16 16:09:00,
2013-06-16 12:14:00,69.1,49.1,29.91,SSW,192,1.0,7.0,73,0.00,,,0.00,meteohub,2013-06-16 16:14:00,
2013-06-16 12:19:00,69.6,49.1,29.90,SSW,198,3.0,5.0,72,0.00,,,0.00,meteohub,2013-06-16 16:19:00,
2013-06-16 12:24:00,70.3,48.0,29.90,SSW,211,7.0,7.0,72,0.00,,,0.00,meteohub,2013-06-16 16:24:00,
2013-06-16 12:29:00,70.3,48.0,29.90,SSW,211,7.0,7.0,72,0.00,,,0.00,meteohub,2013-06-16 16:29:00,
2013-06-16 12:34:00,69.8,48.0,29.90,SSW,207,8.0,8.0,73,0.00,,,0.00,meteohub,2013-06-16 16:34:00,
2013-06-16 12:39:00,69.3,51.1,29.89,SSW,206,7.0,9.0,75,0.00,,,0.00,meteohub,2013-06-16 16:39:00,
2013-06-16 12:44:00,69.3,53.2,29.90,SSW,210,8.0,9.0,75,0.00,,,0.00,meteohub,2013-06-16 16:44:00,
2013-06-16 12:49:00,69.3,54.9,29.89,SSW,204,9.0,10.0,73,0.00,,,0.00,meteohub,2013-06-16 16:49:00,
2013-06-16 12:54:00,70.3,54.9,29.89,SSW,213,10.0,11.0,64,0.00,,,0.00,meteohub,2013-06-16 16:54:00,
2013-06-16 12:59:00,73.0,54.9,29.89,SW,220,16.0,20.0,58,0.00,,,0.00,meteohub,2013-06-16 16:59:00,
2013-06-16 13:04:00,74.1,53.8,29.89,SSW,213,13.0,20.0,53,0.00,,,0.00,meteohub,2013-06-16 17:04:00,
2013-06-16 13:09:00,74.7,52.7,29.88,SSW,211,16.0,22.0,53,0.00,,,0.00,meteohub,2013-06-16 17:09:00,
2013-06-16 13:14:00,74.8,52.2,29.88,SSW,213,11.0,22.0,53,0.00,,,0.00,meteohub,2013-06-16 17:14:00,
2013-06-16 13:19:00,74.1,51.4,29.88,SW,221,12.0,22.0,53,0.00,,,0.00,meteohub,2013-06-16 17:19:00,
2013-06-16 13:24:00,74.3,50.9,29.88,SW,217,13.0,18.0,52,0.00,,,0.00,meteohub,2013-06-16 17:24:00,
2013-06-16 13:29:00,74.7,50.9,29.87,SSW,207,10.0,18.0,53,0.00,,,0.00,meteohub,2013-06-16 17:29:00,
2013-06-16 13:34:00,72.7,50.4,29.87,South,191,8.0,18.0,61,0.00,,,0.00,meteohub,2013-06-16 17:34:00,
2013-06-16 13:39:00,71.1,50.0,29.87,South,187,9.0,18.0,67,0.00,,,0.00,meteohub,2013-06-16 17:39:00,
2013-06-16 13:44:00,70.5,49.8,29.87,South,188,10.0,14.0,69,0.00,,,0.00,meteohub,2013-06-16 17:44:00,
2013-06-16 13:49:00,70.5,49.8,29.87,SSW,192,8.0,12.0,69,0.00,,,0.00,meteohub,2013-06-16 17:49:00,
2013-06-16 13:54:00,70.7,49.8,29.87,South,190,11.0,11.0,69,0.00,,,0.00,meteohub,2013-06-16 17:54:00,
2013-06-16 13:59:00,70.3,49.6,29.86,SSW,196,11.0,11.0,70,0.00,,,0.00,meteohub,2013-06-16 17:59:00,
2013-06-16 14:04:00,70.3,49.6,29.86,SSW,202,10.0,12.0,69,0.00,,,0.00,meteohub,2013-06-16 18:04:00,
2013-06-16 14:09:00,70.0,49.5,29.86,SSW,200,10.0,14.0,70,0.00,,,0.00,meteohub,2013-06-16 18:09:00,
2013-06-16 14:14:00,69.8,49.1,29.86,SSW,197,12.0,14.0,71,0.00,,,0.00,meteohub,2013-06-16 18:14:00,
2013-06-16 14:19:00,69.6,49.1,29.86,SSW,195,10.0,14.0,71,0.00,,,0.00,meteohub,2013-06-16 18:19:00,
2013-06-16 14:24:00,69.4,49.1,29.86,SSW,199,8.0,14.0,72,0.00,,,0.00,meteohub,2013-06-16 18:24:00,
2013-06-16 14:29:00,69.3,52.0,29.85,SSW,192,11.0,14.0,72,0.00,,,0.00,meteohub,2013-06-16 18:29:00,
2013-06-16 14:34:00,69.1,54.0,29.84,South,188,11.0,13.0,74,0.00,,,0.00,meteohub,2013-06-16 18:34:00,
2013-06-16 14:39:00,69.3,55.0,29.84,SSW,197,11.0,13.0,73,0.00,,,0.00,meteohub,2013-06-16 18:39:00,
2013-06-16 14:44:00,69.3,55.8,29.84,SSW,194,15.0,15.0,73,0.00,,,0.00,meteohub,2013-06-16 18:44:00,
2013-06-16 14:49:00,68.9,55.8,29.83,SSW,192,13.0,17.0,73,0.00,,,0.00,meteohub,2013-06-16 18:49:00,
2013-06-16 14:54:00,68.4,56.7,29.83,South,171,13.0,20.0,74,0.00,,,0.00,meteohub,2013-06-16 18:54:00,
2013-06-16 14:59:00,68.4,56.5,29.83,SSW,200,10.0,20.0,75,0.00,,,0.00,meteohub,2013-06-16 18:59:00,
2013-06-16 15:04:00,68.4,54.9,29.83,South,188,14.0,20.0,76,0.00,,,0.00,meteohub,2013-06-16 19:04:00,
2013-06-16 15:09:00,68.2,53.8,29.83,South,189,15.0,18.0,79,0.00,,,0.00,meteohub,2013-06-16 19:09:00,
2013-06-16 15:14:00,67.8,53.6,29.82,SSW,194,12.0,16.0,81,0.00,,,0.00,meteohub,2013-06-16 19:14:00,
2013-06-16 15:19:00,67.8,53.1,29.82,SSW,194,13.0,16.0,83,0.00,,,0.00,meteohub,2013-06-16 19:19:00,
2013-06-16 15:24:00,67.6,52.3,29.82,SSW,196,14.0,16.0,84,0.00,,,0.00,meteohub,2013-06-16 19:24:00,
2013-06-16 15:29:00,67.6,52.2,29.82,SSW,193,14.0,17.0,85,0.00,,,0.00,meteohub,2013-06-16 19:29:00,
2013-06-16 15:34:00,67.6,52.2,29.82,SSW,193,14.0,17.0,85,0.00,,,0.00,meteohub,2013-06-16 19:34:00,
2013-06-16 15:39:00,67.6,52.0,29.81,SSW,198,10.0,17.0,86,0.00,,,0.00,meteohub,2013-06-16 19:39:00,
2013-06-16 15:44:00,67.6,51.8,29.81,South,190,13.0,16.0,86,0.00,,,0.00,meteohub,2013-06-16 19:44:00,
2013-06-16 15:49:00,67.6,51.8,29.81,South,190,14.0,16.0,86,0.00,,,0.00,meteohub,2013-06-16 19:49:00,
2013-06-16 15:54:00,67.6,51.6,29.81,South,187,15.0,16.0,86,0.00,,,0.00,meteohub,2013-06-16 19:54:00,
2013-06-16 15:59:00,67.6,51.6,29.81,SSW,194,16.0,16.0,86,0.00,,,0.00,meteohub,2013-06-16 19:59:00,
2013-06-16 16:04:00,67.3,52.0,29.81,SSW,192,15.0,19.0,86,0.00,,,0.00,meteohub,2013-06-16 20:04:00,
2013-06-16 16:09:00,66.9,51.8,29.81,South,188,15.0,19.0,87,0.00,,,0.00,meteohub,2013-06-16 20:09:00,
2013-06-16 16:14:00,67.1,51.6,29.81,SSW,196,15.0,19.0,87,0.00,,,0.00,meteohub,2013-06-16 20:14:00,
2013-06-16 16:19:00,67.1,54.3,29.81,SSW,197,15.0,18.0,87,0.00,,,0.00,meteohub,2013-06-16 20:19:00,
2013-06-16 16:24:00,67.6,56.8,29.80,SSW,192,13.0,17.0,87,0.00,,,0.00,meteohub,2013-06-16 20:24:00,
2013-06-16 16:29:00,68.2,57.9,29.80,SSW,213,17.0,17.0,85,0.00,,,0.00,meteohub,2013-06-16 20:29:00,
2013-06-16 16:34:00,69.1,58.6,29.80,SW,215,17.0,21.0,83,0.00,,,0.00,meteohub,2013-06-16 20:34:00,
2013-06-16 16:39:00,68.9,59.5,29.80,SSW,213,19.0,24.0,83,0.00,,,0.00,meteohub,2013-06-16 20:39:00,
2013-06-16 16:44:00,68.7,59.5,29.80,SW,215,19.0,30.0,83,0.00,,,0.00,meteohub,2013-06-16 20:44:00,
2013-06-16 16:49:00,68.5,57.9,29.80,SSW,211,22.0,30.0,84,0.00,,,0.00,meteohub,2013-06-16 20:49:00,
2013-06-16 16:54:00,68.5,57.0,29.81,SW,217,19.0,30.0,84,0.00,,,0.00,meteohub,2013-06-16 20:54:00,
2013-06-16 16:59:00,68.5,56.1,29.81,SSW,213,22.0,26.0,84,0.00,,,0.00,meteohub,2013-06-16 20:59:00,
2013-06-16 17:04:00,68.4,55.8,29.81,SW,219,19.0,27.0,85,0.00,,,0.00,meteohub,2013-06-16 21:04:00,
2013-06-16 17:09:00,68.4,55.2,29.81,SW,214,17.0,27.0,85,0.00,,,0.00,meteohub,2013-06-16 21:09:00,
2013-06-16 17:14:00,68.2,54.7,29.81,SW,217,14.0,27.0,85,0.00,,,0.00,meteohub,2013-06-16 21:14:00,
2013-06-16 17:19:00,68.2,54.5,29.80,SSW,211,15.0,27.0,86,0.00,,,0.00,meteohub,2013-06-16 21:19:00,
2013-06-16 17:24:00,68.2,54.0,29.80,SSW,207,9.0,22.0,86,0.00,,,0.00,meteohub,2013-06-16 21:24:00,
2013-06-16 17:29:00,68.4,53.8,29.79,SW,215,16.0,22.0,86,0.00,,,0.00,meteohub,2013-06-16 21:29:00,
2013-06-16 17:34:00,68.5,53.6,29.79,SW,225,16.0,22.0,86,0.00,,,0.00,meteohub,2013-06-16 21:34:00,
2013-06-16 17:39:00,68.7,53.6,29.79,SSW,212,14.0,20.0,86,0.00,,,0.00,meteohub,2013-06-16 21:39:00,
2013-06-16 17:44:00,68.7,55.9,29.79,SSW,213,17.0,21.0,86,0.00,,,0.00,meteohub,2013-06-16 21:44:00,
2013-06-16 17:49:00,68.7,58.3,29.79,SW,217,14.0,21.0,86,0.00,,,0.00,meteohub,2013-06-16 21:49:00,
2013-06-16 17:54:00,68.7,59.4,29.78,SSW,210,16.0,21.0,86,0.00,,,0.00,meteohub,2013-06-16 21:54:00,
2013-06-16 17:59:00,68.5,59.9,29.78,SW,218,15.0,20.0,86,0.00,,,0.00,meteohub,2013-06-16 21:59:00,
2013-06-16 18:04:00,68.5,60.6,29.78,SSW,212,15.0,20.0,86,0.00,,,0.00,meteohub,2013-06-16 22:04:00,
2013-06-16 18:09:00,68.4,60.3,29.78,SSW,209,12.0,23.0,86,0.00,,,0.00,meteohub,2013-06-16 22:09:00,
2013-06-16 18:14:00,68.7,60.6,29.78,SSW,212,14.0,23.0,86,0.00,,,0.00,meteohub,2013-06-16 22:14:00,
2013-06-16 18:19:00,68.9,61.0,29.78,SW,214,11.0,23.0,85,0.00,,,0.00,meteohub,2013-06-16 22:19:00,
2013-06-16 18:24:00,69.1,59.7,29.78,SW,214,15.0,19.0,85,0.00,,,0.00,meteohub,2013-06-16 22:24:00,
2013-06-16 18:29:00,69.1,58.3,29.78,SW,223,14.0,20.0,85,0.00,,,0.00,meteohub,2013-06-16 22:29:00,
2013-06-16 18:34:00,69.1,57.7,29.78,SSW,213,14.0,20.0,85,0.00,,,0.00,meteohub,2013-06-16 22:34:00,
2013-06-16 18:39:00,69.1,56.5,29.78,SW,218,14.0,21.0,85,0.00,,,0.00,meteohub,2013-06-16 22:39:00,
2013-06-16 18:44:00,69.1,55.8,29.78,SSW,211,15.0,21.0,85,0.00,,,0.00,meteohub,2013-06-16 22:44:00,
2013-06-16 18:49:00,68.9,55.8,29.78,SSW,213,16.0,21.0,85,0.00,,,0.00,meteohub,2013-06-16 22:49:00,
2013-06-16 18:54:00,69.1,55.0,29.78,SW,223,15.0,20.0,85,0.00,,,0.00,meteohub,2013-06-16 22:54:00,
2013-06-16 18:59:00,68.9,55.2,29.78,SW,218,16.0,20.0,85,0.00,,,0.00,meteohub,2013-06-16 22:59:00,
2013-06-16 19:05:00,68.7,55.0,29.77,SW,226,18.0,20.0,85,0.00,,,0.00,meteohub,2013-06-16 23:05:00,
2013-06-16 19:10:00,68.5,54.9,29.77,SW,219,13.0,21.0,85,0.00,,,0.00,meteohub,2013-06-16 23:10:00,
2013-06-16 19:15:00,68.5,54.7,29.78,SSW,213,17.0,21.0,85,0.00,,,0.00,meteohub,2013-06-16 23:15:00,
2013-06-16 19:20:00,68.5,55.9,29.77,SSW,211,17.0,21.0,85,0.00,,,0.00,meteohub,2013-06-16 23:20:00,
2013-06-16 19:25:00,68.4,57.4,29.77,SSW,213,13.0,21.0,85,0.00,,,0.00,meteohub,2013-06-16 23:25:00,
2013-06-16 19:30:00,68.2,58.8,29.77,SSW,211,15.0,21.0,86,0.00,,,0.00,meteohub,2013-06-16 23:30:00,
2013-06-16 19:35:00,68.2,59.5,29.77,SW,215,12.0,20.0,86,0.00,,,0.00,meteohub,2013-06-16 23:35:00,
2013-06-16 19:40:00,68.2,60.1,29.77,SSW,211,13.0,20.0,86,0.00,,,0.00,meteohub,2013-06-16 23:40:00,
2013-06-16 19:45:00,68.2,60.3,29.78,SW,236,14.0,21.0,86,0.00,,,0.00,meteohub,2013-06-16 23:45:00,
2013-06-16 19:50:00,68.2,60.6,29.77,SW,218,13.0,21.0,86,0.00,,,0.00,meteohub,2013-06-16 23:50:00,
2013-06-16 19:55:00,68.2,60.8,29.77,SW,225,12.0,21.0,86,0.00,,,0.00,meteohub,2013-06-16 23:55:00,
2013-06-16 20:00:00,68.2,60.8,29.78,SW,221,14.0,18.0,86,0.00,,,0.00,meteohub,2013-06-17 00:00:00,
2013-06-16 20:05:00,68.0,61.2,29.78,SW,221,12.0,19.0,86,0.00,,,0.00,meteohub,2013-06-17 00:05:00,
2013-06-16 20:10:00,68.0,61.3,29.78,SW,217,11.0,19.0,86,0.00,,,0.00,meteohub,2013-06-17 00:10:00,
2013-06-16 20:15:00,68.2,61.5,29.78,SSW,203,15.0,19.0,86,0.00,,,0.00,meteohub,2013-06-17 00:15:00,
2013-06-16 20:20:00,68.4,60.6,29.78,SW,217,14.0,19.0,85,0.00,,,0.00,meteohub,2013-06-17 00:20:00,
2013-06-16 20:25:00,68.5,59.2,29.77,SW,215,14.0,17.0,85,0.00,,,0.00,meteohub,2013-06-17 00:25:00,
2013-06-16 20:30:00,68.5,58.1,29.77,SW,232,13.0,17.0,85,0.00,,,0.00,meteohub,2013-06-17 00:30:00,
2013-06-16 20:35:00,68.5,57.0,29.77,SW,221,14.0,18.0,85,0.00,,,0.00,meteohub,2013-06-17 00:35:00,
2013-06-16 20:40:00,68.5,56.3,29.78,SW,223,11.0,18.0,85,0.00,,,0.00,meteohub,2013-06-17 00:40:00,
2013-06-16 20:45:00,68.5,55.6,29.78,SW,219,15.0,18.0,85,0.00,,,0.00,meteohub,2013-06-17 00:45:00,
2013-06-16 20:50:00,68.5,55.4,29.77,SW,215,11.0,18.0,84,0.00,,,0.00,meteohub,2013-06-17 00:50:00,
2013-06-16 20:55:00,68.7,55.2,29.77,SW,227,15.0,18.0,84,0.00,,,0.00,meteohub,2013-06-17 00:55:00,
2013-06-16 21:00:00,68.9,54.5,29.78,WSW,238,14.0,18.0,84,0.00,,,0.00,meteohub,2013-06-17 01:00:00,
2013-06-16 21:05:00,69.1,55.2,29.78,SW,221,11.0,17.0,84,0.00,,,0.00,meteohub,2013-06-17 01:05:00,
2013-06-16 21:10:00,69.1,56.8,29.78,SW,220,10.0,17.0,84,0.00,,,0.00,meteohub,2013-06-17 01:10:00,
2013-06-16 21:15:00,69.1,58.8,29.79,SW,214,11.0,17.0,84,0.00,,,0.00,meteohub,2013-06-17 01:15:00,
2013-06-16 21:20:00,69.1,59.4,29.79,WSW,239,12.0,16.0,84,0.00,,,0.00,meteohub,2013-06-17 01:20:00,
2013-06-16 21:25:00,69.3,59.9,29.79,SW,226,7.0,15.0,83,0.00,,,0.00,meteohub,2013-06-17 01:25:00,
2013-06-16 21:30:00,69.4,60.3,29.79,SW,225,9.0,15.0,83,0.00,,,0.00,meteohub,2013-06-17 01:30:00,
2013-06-16 21:35:00,69.4,60.4,29.80,SW,219,7.0,17.0,83,0.00,,,0.00,meteohub,2013-06-17 01:35:00,
2013-06-16 21:40:00,69.6,60.6,29.80,SW,230,12.0,17.0,82,0.00,,,0.00,meteohub,2013-06-17 01:40:00,
2013-06-16 21:45:00,70.2,60.8,29.80,SW,227,11.0,13.0,82,0.00,,,0.00,meteohub,2013-06-17 01:45:00,
2013-06-16 21:50:00,70.5,60.3,29.80,SW,235,12.0,15.0,81,0.00,,,0.00,meteohub,2013-06-17 01:50:00,
2013-06-16 21:55:00,71.2,59.5,29.81,SW,236,16.0,16.0,79,0.00,,,0.00,meteohub,2013-06-17 01:55:00,
2013-06-16 22:00:00,71.6,58.6,29.81,SW,225,11.0,19.0,77,0.00,,,0.00,meteohub,2013-06-17 02:00:00,
2013-06-16 22:05:00,72.0,57.6,29.81,WSW,238,9.0,19.0,77,0.00,,,0.00,meteohub,2013-06-17 02:05:00,
2013-06-16 22:10:00,72.5,56.8,29.81,SW,219,9.0,16.0,75,0.00,,,0.00,meteohub,2013-06-17 02:10:00,
2013-06-16 22:15:00,72.9,56.1,29.81,SW,234,9.0,17.0,75,0.00,,,0.00,meteohub,2013-06-17 02:15:00,
2013-06-16 22:20:00,72.7,55.4,29.81,SW,233,10.0,18.0,75,0.00,,,0.00,meteohub,2013-06-17 02:20:00,
2013-06-16 22:25:00,72.1,54.7,29.81,WSW,242,10.0,18.0,77,0.00,,,0.00,meteohub,2013-06-17 02:25:00,
2013-06-16 22:30:00,73.2,54.7,29.81,WSW,240,9.0,18.0,74,0.00,,,0.00,meteohub,2013-06-17 02:30:00,
2013-06-16 22:35:00,73.8,54.5,29.82,WSW,256,11.0,20.0,72,0.00,,,0.00,meteohub,2013-06-17 02:35:00,
2013-06-16 22:40:00,73.8,54.3,29.82,West,260,14.0,20.0,72,0.00,,,0.00,meteohub,2013-06-17 02:40:00,
2013-06-16 22:45:00,73.6,54.3,29.81,WSW,242,13.0,20.0,72,0.00,,,0.00,meteohub,2013-06-17 02:45:00,
2013-06-16 22:50:00,73.4,55.6,29.81,WSW,243,12.0,18.0,73,0.00,,,0.00,meteohub,2013-06-17 02:50:00,
2013-06-16 22:55:00,73.2,57.4,29.81,SW,229,14.0,16.0,73,0.00,,,0.00,meteohub,2013-06-17 02:55:00,
2013-06-16 23:00:00,72.9,58.8,29.82,WSW,254,10.0,16.0,74,0.00,,,0.00,meteohub,2013-06-17 03:00:00,
2013-06-16 23:05:00,72.7,59.0,29.82,WSW,239,13.0,16.0,74,0.00,,,0.00,meteohub,2013-06-17 03:05:00,
2013-06-16 23:10:00,72.9,59.5,29.82,SW,223,8.0,15.0,74,0.00,,,0.00,meteohub,2013-06-17 03:10:00,
2013-06-16 23:15:00,72.7,59.5,29.82,SW,229,9.0,21.0,75,0.00,,,0.00,meteohub,2013-06-17 03:15:00,
2013-06-16 23:20:00,72.7,58.1,29.83,West,259,8.0,21.0,75,0.00,,,0.00,meteohub,2013-06-17 03:20:00,
2013-06-16 23:25:00,73.2,57.2,29.82,WSW,251,14.0,18.0,74,0.00,,,0.00,meteohub,2013-06-17 03:25:00,
2013-06-16 23:30:00,73.4,56.7,29.82,West,262,10.0,18.0,73,0.00,,,0.00,meteohub,2013-06-17 03:30:00,
2013-06-16 23:35:00,73.6,55.9,29.82,West,274,13.0,22.0,73,0.00,,,0.00,meteohub,2013-06-17 03:35:00,
2013-06-16 23:40:00,73.6,55.4,29.83,SW,236,8.0,22.0,73,0.00,,,0.00,meteohub,2013-06-17 03:40:00,
2013-06-16 23:45:00,73.6,54.7,29.83,West,271,17.0,22.0,73,0.00,,,0.00,meteohub,2013-06-17 03:45:00,
2013-06-16 23:50:00,73.2,55.0,29.83,West,267,20.0,20.0,73,0.00,,,0.00,meteohub,2013-06-17 03:50:00,
2013-06-16 23:55:00,73.0,56.8,29.83,West,261,13.0,20.0,74,0.00,,,0.00,meteohub,2013-06-17 03:55:00,